Вернуться в каталог

ZHUHAI-1 OHS-02

АктивенНаукаSSO
NORAD 43441·PAYLOAD·🇨🇳 China

Запущен Apr 26, 2018 с Jiuquan Satellite Launch Center

Loading…

Ближайшие Пролёты (ближайшие 24 часа)

TLE

СвежийSource: Space-Track

Эпоха: Sep 14, 2026, 15:09 UTC

1 43441U 18040C   26257.63164215  .00004885  00000-0  18705-3 0  9998
2 43441  97.0341 276.6374 0007092 272.9304  87.1124 15.26956334127920

Отслеживайте ZHUHAI-1 OHS-02 в реальном времени с AllMySat

Download on the App Store